Weather History for Williamsburg, VA

Change the Weather History Date:

Wednesday, November 7, 2012

  Actual Average Record
Temperature  
Mean Temperature 44 °F -  
Max Temperature 46 °F 62 °F 79 °F (1975)
Min Temperature 41 °F 38 °F 20 °F (1973)
Degree Days  
Heating Degree Days 22    
Moisture  
Dew Point 38 °F    
Average Humidity 80    
Maximum Humidity 93    
Minimum Humidity 66    
Precipitation  
Precipitation 0.06 in - - ()
Sea Level Pressure  
Sea Level Pressure 29.87 in    
Wind  
Wind Speed 8 mph (North)    
Max Wind Speed 13 mph    
Max Gust Speed 20 mph    
Visibility 10 miles    
Events      
Averages and records for this station are not official NWS values.
T = Trace of Precipitation, MM = Missing Value Source: NWS Daily Summary

Daily Weather History Graph

Daily Weather History Graph

Search for Another Location

Airport:

Trip Planner

Search our weather history database for the weather conditions in past years. The results will help you decide how hot, cold, wet, or windy it might be!

Date:

Astronomy

Nov. 07, 2012 Rise Set
Actual Time 6:38 AM EST 5:02 PM EST
Civil Twilight 6:10 AM EST 5:29 PM EST
Nautical Twilight 5:39 AM EST 6:01 PM EST
Astronomical Twilight 5:08 AM EST 6:31 PM EST
Moon No Moon Rise 1:02 PM EST (11/7)
Length of Visible Light 11h 19m
Length of Day
10h 24m
Last Quarter, 43% of the Moon is Illuminated
Nov 7
Last Quarter
Nov 13
New
Nov 20
First Quarter
Nov 28
Full
Dec 6
Last Quarter

Hourly Weather History & Observations

Time (EST) Temp. Windchill Dew Point Humidity Pressure Visibility Wind Dir Wind Speed Gust Speed Precip Events Conditions
12:15 AM 46.4 °F 43.5 °F 41.0 °F 81% 29.91 in 10.0 mi North 5.8 mph - N/A   Overcast
12:35 AM 44.6 °F 40.2 °F 41.0 °F 87% 29.91 in 10.0 mi North 8.1 mph - N/A   Overcast
12:55 AM 44.6 °F 41.4 °F 42.8 °F 93% 29.90 in 7.0 mi North 5.8 mph - N/A   Overcast
1:15 AM 44.6 °F 40.2 °F 42.8 °F 93% 29.89 in 5.0 mi North 8.1 mph - 0.01 in   Overcast
1:35 AM 44.6 °F 41.4 °F 42.8 °F 93% 29.90 in 7.0 mi North 5.8 mph - 0.01 in   Overcast
1:55 AM 44.6 °F 40.7 °F 42.8 °F 93% 29.89 in 10.0 mi North 6.9 mph - 0.01 in   Overcast
2:15 AM 42.8 °F 37.0 °F 41.0 °F 93% 29.88 in 7.0 mi NNE 10.4 mph 18.4 mph 0.01 in   Overcast
2:35 AM 42.8 °F 38.0 °F 41.0 °F 93% 29.88 in 5.0 mi North 8.1 mph 17.3 mph 0.02 in   Overcast
2:55 AM 42.8 °F 37.5 °F 39.2 °F 87% 29.87 in 10.0 mi North 9.2 mph 17.3 mph 0.03 in   Overcast
3:15 AM 42.8 °F 38.0 °F 39.2 °F 87% 29.87 in 7.0 mi NNE 8.1 mph - N/A   Overcast
3:55 AM 42.8 °F 37.5 °F 39.2 °F 87% 29.87 in 7.0 mi North 9.2 mph 17.3 mph 0.01 in   Overcast
4:15 AM 41.0 °F 35.8 °F 39.2 °F 93% 29.87 in 10.0 mi North 8.1 mph 17.3 mph N/A   Overcast
4:35 AM 41.0 °F 36.4 °F 39.2 °F 93% 29.87 in 10.0 mi North 6.9 mph 17.3 mph N/A   Overcast
4:55 AM 41.0 °F 34.7 °F 39.2 °F 93% 29.88 in 5.0 mi North 10.4 mph 17.3 mph N/A   Overcast
5:35 AM 41.0 °F 35.2 °F 37.4 °F 87% 29.88 in 7.0 mi North 9.2 mph 19.6 mph 0.01 in   Overcast
5:55 AM 41.0 °F 35.2 °F 37.4 °F 87% 29.88 in 10.0 mi North 9.2 mph - 0.01 in   Overcast
6:15 AM 41.0 °F 35.8 °F 39.2 °F 93% 29.88 in 10.0 mi North 8.1 mph 16.1 mph N/A   Overcast
6:35 AM 41.0 °F 37.1 °F 37.4 °F 87% 29.88 in 10.0 mi North 5.8 mph - N/A   Overcast
6:55 AM 41.0 °F 37.1 °F 37.4 °F 87% 29.88 in 10.0 mi North 5.8 mph - N/A   Overcast
7:15 AM 41.0 °F 37.1 °F 37.4 °F 87% 29.88 in 10.0 mi North 5.8 mph - N/A   Overcast
7:35 AM 41.0 °F 34.3 °F 39.2 °F 93% 29.88 in 10.0 mi North 11.5 mph 17.3 mph N/A   Overcast
7:55 AM 42.8 °F 38.0 °F 39.2 °F 87% 29.88 in 10.0 mi North 8.1 mph - N/A   Overcast
8:15 AM 42.8 °F 37.5 °F 39.2 °F 87% 29.88 in 10.0 mi NNW 9.2 mph - N/A   Overcast
8:35 AM 42.8 °F 38.0 °F 39.2 °F 87% 29.87 in 10.0 mi NNW 8.1 mph - N/A   Overcast
8:55 AM 42.8 °F 38.6 °F 39.2 °F 87% 29.87 in 10.0 mi North 6.9 mph 16.1 mph N/A   Overcast
9:15 AM 44.6 °F 38.8 °F 39.2 °F 81% 29.87 in 10.0 mi North 11.5 mph 16.1 mph N/A   Overcast
9:35 AM 44.6 °F 40.7 °F 39.2 °F 81% 29.87 in 10.0 mi North 6.9 mph 17.3 mph N/A   Overcast
9:55 AM 44.6 °F 40.2 °F 39.2 °F 81% 29.87 in 10.0 mi NNE 8.1 mph - N/A   Overcast
10:15 AM 44.6 °F 39.7 °F 39.2 °F 81% 29.87 in 10.0 mi North 9.2 mph - N/A   Overcast
10:35 AM 44.6 °F 42.2 °F 39.2 °F 81% 29.87 in 10.0 mi North 4.6 mph - N/A   Overcast
10:55 AM 44.6 °F 38.4 °F 39.2 °F 81% 29.87 in 10.0 mi NNW 12.7 mph - N/A   Overcast
11:15 AM 46.4 °F 41.9 °F 39.2 °F 76% 29.86 in 10.0 mi North 9.2 mph - N/A   Overcast
11:35 AM 46.4 °F 45.2 °F 39.2 °F 76% 29.86 in 10.0 mi North 3.5 mph 16.1 mph N/A   Mostly Cloudy
11:55 AM 46.4 °F 41.5 °F 39.2 °F 76% 29.85 in 10.0 mi North 10.4 mph 17.3 mph N/A   Overcast
12:15 PM 46.4 °F 43.5 °F 39.2 °F 76% - 10.0 mi NNW 5.8 mph - N/A   Overcast
12:35 PM 46.4 °F 41.9 °F 39.2 °F 76% 29.84 in 10.0 mi North 9.2 mph - N/A   Overcast
12:55 PM 46.4 °F 41.1 °F 39.2 °F 76% 29.84 in 10.0 mi North 11.5 mph - N/A   Overcast
1:15 PM 46.4 °F 41.1 °F 39.2 °F 76% 29.84 in 10.0 mi NNW 11.5 mph 16.1 mph N/A   Overcast
1:35 PM 46.4 °F 44.3 °F 39.2 °F 76% 29.84 in 10.0 mi North 4.6 mph - N/A   Overcast
1:55 PM 46.4 °F 42.4 °F 37.4 °F 71% 29.84 in 10.0 mi NNW 8.1 mph 17.3 mph N/A   Overcast
2:15 PM 46.4 °F 41.5 °F 37.4 °F 71% 29.84 in 10.0 mi North 10.4 mph - N/A   Overcast
2:35 PM 46.4 °F 43.5 °F 37.4 °F 71% 29.84 in 10.0 mi North 5.8 mph - N/A   Overcast
2:55 PM 46.4 °F 43.5 °F 37.4 °F 71% 29.84 in 10.0 mi NNW 5.8 mph - N/A   Mostly Cloudy
3:15 PM 46.4 °F 41.5 °F 37.4 °F 71% 29.84 in 10.0 mi NNW 10.4 mph - N/A   Mostly Cloudy
3:35 PM 46.4 °F 42.9 °F 37.4 °F 71% 29.84 in 10.0 mi North 6.9 mph - N/A   Overcast
3:55 PM 46.4 °F 44.3 °F 37.4 °F 71% 29.84 in 10.0 mi NNW 4.6 mph - N/A   Scattered Clouds
4:15 PM 46.4 °F 43.5 °F 37.4 °F 71% 29.85 in 10.0 mi North 5.8 mph - N/A   Scattered Clouds
4:35 PM 46.4 °F 42.9 °F 35.6 °F 66% 29.85 in 10.0 mi North 6.9 mph - N/A   Scattered Clouds
4:55 PM 44.6 °F 40.2 °F 35.6 °F 71% 29.85 in 10.0 mi North 8.1 mph - N/A   Mostly Cloudy
5:15 PM 44.6 °F 40.2 °F 35.6 °F 71% 29.86 in 10.0 mi NNW 8.1 mph - N/A   Mostly Cloudy
5:35 PM 44.6 °F 40.7 °F 35.6 °F 71% 29.87 in 10.0 mi NNW 6.9 mph - N/A   Overcast
6:15 PM 44.6 °F 40.7 °F 33.8 °F 66% 29.88 in 10.0 mi NNW 6.9 mph - N/A   Overcast
6:35 PM 44.6 °F 40.2 °F 35.6 °F 71% 29.88 in 10.0 mi North 8.1 mph - N/A   Overcast
6:55 PM 44.6 °F 41.4 °F 33.8 °F 66% 29.89 in 10.0 mi NNW 5.8 mph - N/A   Overcast
7:15 PM 44.6 °F 41.4 °F 33.8 °F 66% 29.88 in 10.0 mi NNW 5.8 mph - N/A   Overcast
7:35 PM 42.8 °F 39.3 °F 33.8 °F 70% 29.88 in 10.0 mi NNW 5.8 mph - N/A   Overcast
7:55 PM 42.8 °F 38.6 °F 35.6 °F 76% 29.89 in 10.0 mi NNW 6.9 mph - N/A   Overcast
8:15 PM 42.8 °F 38.6 °F 35.6 °F 76% 29.89 in 10.0 mi NNW 6.9 mph - N/A   Overcast
8:35 PM 42.8 °F 38.6 °F 33.8 °F 70% 29.89 in 10.0 mi NNW 6.9 mph - N/A   Overcast
8:55 PM 42.8 °F 38.0 °F 33.8 °F 70% 29.89 in 10.0 mi North 8.1 mph - N/A   Overcast
9:15 PM 42.8 °F 38.0 °F 33.8 °F 70% 29.89 in 10.0 mi North 8.1 mph - N/A   Overcast
9:35 PM 42.8 °F 38.6 °F 33.8 °F 70% 29.90 in 10.0 mi NNW 6.9 mph - N/A   Overcast
9:55 PM 42.8 °F 38.6 °F 35.6 °F 76% 29.90 in 10.0 mi NNW 6.9 mph - N/A   Overcast
10:15 PM 42.8 °F 38.0 °F 35.6 °F 76% 29.90 in 10.0 mi North 8.1 mph - N/A   Overcast
10:35 PM 42.8 °F 38.0 °F 35.6 °F 76% 29.91 in 10.0 mi North 8.1 mph - N/A   Overcast
10:55 PM 42.8 °F 40.1 °F 35.6 °F 76% 29.91 in 10.0 mi NNW 4.6 mph - N/A   Overcast
11:15 PM 42.8 °F 38.0 °F 35.6 °F 76% 29.91 in 10.0 mi NNW 8.1 mph - N/A   Overcast
11:35 PM 41.0 °F 36.4 °F 35.6 °F 81% 29.91 in 10.0 mi NNW 6.9 mph - N/A   Overcast
11:55 PM 41.0 °F 38.0 °F 35.6 °F 81% 29.91 in 10.0 mi NNW 4.6 mph - N/A   Overcast